Content
SEND FEEDBACK

Daily
Averages
Monthly
Summary
United States of America

BIG WATER, UTAH


Home > North America > United States > Utah
Elevation: 4166 feet     Latitude: 37 05N     Longitude: 111 40W

WEATHER
 
SELECT A DAY
Number of Records: 194,728;   Date Range: 1/1/95 - 7/29/14
 
SHARE

PRINT THIS DATA

[ ← Previous Day ]
WEATHER ALMANAC - MARCH 24, 2014
[ Next Day → ]
[ °C ]   °F
Weather ElementAverageHighLow
Temperature57.2 °F69.1 °F (2:53 pm)45 °F (5:53 am)
Dewpoint9.5 °F15.1 °F (2:53 am)3.9 °F (2:53 pm)
Humidity16.6 %27 % (5:53 am)8 % (2:53 pm)
Barometer30.06 in30.14 in (9:53 am)30.00 in (5:53 pm)
Wind Speed3.2 mph8.1 mph (2:53 pm)
Weather ElementAverage
Visibility10 mi
Wind DirectionE (87.4 °)

Weather ElementTotal
Precipitation---
Heating Degree Days8 (Base 65)
Growing Degree Days7.1 (Base 50)
Averaged from 23 records on March 24, 2014
WEATHER CONDITIONS BREAKOUT
WIND DIRECTION BREAKOUT
WEATHER BY HOUR - MARCH 24, 2014
[ °C ]   °F
Local TimeTemperatureDewpointHumidityBarometerVisibilityWind DirectionWind SpeedGust SpeedPrecipitationEventsConditions
1:53 AM48.9 °F14.0 °F25 %30.04 in10.0 miCalmClear
2:53 AM51.1 °F15.1 °F24 %30.02 in10.0 miWSW (250°)3.5 mphClear
3:53 AM46.9 °F12.9 °F25 %30.04 in10.0 miSSE (150°)6.9 mphClear
4:53 AM46.9 °F12.9 °F25 %30.05 in10.0 miCalmClear
5:53 AM45.0 °F12.9 °F27 %30.08 in10.0 miSSE (160°)3.5 mphClear
6:53 AM46.9 °F14.0 °F27 %30.10 in10.0 miWNW (300°)4.6 mphClear
7:53 AM50.0 °F14.0 °F24 %30.12 in10.0 miNorth (360°)3.5 mphClear
8:53 AM54.0 °F14.0 °F21 %30.13 in10.0 miNW (320°)3.5 mphClear
9:53 AM57.0 °F12.9 °F18 %30.14 in10.0 miCalmClear
10:53 AM60.1 °F12.9 °F16 %30.12 in10.0 miVariable3.5 mphClear
11:53 AM63.0 °F7.0 °F11 %30.12 in10.0 miVariable5.8 mphClear
12:53 PM66.0 °F5.0 °F9 %30.09 in10.0 miVariable4.6 mphClear
1:53 PM66.9 °F5.0 °F9 %30.07 in10.0 miVariable3.5 mphClear
2:53 PM69.1 °F3.9 °F8 %30.04 in10.0 miNE (40°)8.1 mphClear
3:53 PM69.1 °F3.9 °F8 %30.03 in10.0 miVariable5.8 mphClear
4:53 PM69.1 °F5.0 °F8 %30.01 in10.0 miEast (80°)4.6 mphClear
5:53 PM68.0 °F6.1 °F9 %30.00 in10.0 miNE (50°)3.5 mphClear
6:53 PM62.1 °F9.0 °F12 %30.01 in10.0 miCalmClear
7:53 PM61.0 °F9.0 °F13 %30.01 in10.0 miCalmClear
8:53 PM55.9 °F10.0 °F16 %30.03 in10.0 miCalmClear
9:53 PM54.0 °F7.0 °F15 %30.03 in10.0 miSSE (160°)3.5 mphClear
10:53 PM53.1 °F3.9 °F14 %30.03 in10.0 miSE (140°)4.6 mphClear
11:53 PM51.1 °F7.0 °F17 %30.03 in9.0 miCalmClear
Hourly data recorded from KPGA, located miles away from Big Water, Utah







STORIES FROM OUR PARTNERS